Change the Weather History Date:

Thursday, June 27, 2013

  Actual Average Record
Temperature  
Mean Temperature 84 °F 78 °F  
Max Temperature 94 °F 89 °F 104 °F (1954)
Min Temperature 73 °F 68 °F 54 °F (2004)
Degree Days  
Heating Degree Days 0 0  
Month to date heating degree days 0 0  
Since 1 June heating degree days 0 0  
Since 1 July heating degree days 4210 4128  
Cooling Degree Days 19 13  
Month to date cooling degree days 294 278  
Year to date cooling degree days 472 450  
Since 1 June cooling degree days 294 278  
Growing Degree Days 33 (Base 50)    
Moisture  
Dew Point 71 °F    
Average Humidity 69    
Maximum Humidity 94    
Minimum Humidity 44    
Precipitation  
Precipitation 0.01 in 0.13 in 1.49 in (1960)
Month to date precipitation 8.33 3.65  
Year to date precipitation 33.80 24.87  
Snow  
Snow 0.00 in 0.00 in 0.00 in (2002)
Month to date snowfall 0.0 0.0  
Since 1 June snowfall 0.0 0.0  
Since 1 July snowfall 6.8 9.1  
Snow Depth 0.00 in    
Sea Level Pressure  
Sea Level Pressure 29.83 in    
Wind  
Wind Speed 7 mph (West)    
Max Wind Speed 15 mph    
Max Gust Speed 26 mph    
Visibility 10 miles    
Events Rain , Thunderstorm    
T = Trace of Precipitation, MM = Missing Value Source: NWS Daily Summary

Daily Weather History Graph

Daily Weather History Graph

Search for Another Location

Airport or City:

Trip Planner

Search our weather history database for the weather conditions in past years. The results will help you decide how hot, cold, wet, or windy it might be!

Date:

Astronomy

Jun. 27, 2013 Rise Set
Actual Time 5:37 AM CDT 8:18 PM CDT
Civil Twilight 5:06 AM CDT 8:49 PM CDT
Nautical Twilight 4:28 AM CDT 9:28 PM CDT
Astronomical Twilight 3:44 AM CDT 10:11 PM CDT
Moon 11:24 PM CDT (6/27) 10:31 AM CDT (6/27)
Length of Visible Light 15h 43m
Length of Day
14h 41m
Waning Gibbous, 76% of the Moon is Illuminated
Jun 27
Waning Gibbous
Jun 29
Last Quarter
Jul 8
New
Jul 15
First Quarter
Jul 22
Full

Hourly Weather History & Observations

Time (CDT) Temp. Heat Index Dew Point Humidity Pressure Visibility Wind Dir Wind Speed Gust Speed Precip Events Conditions
12:31 AM 75.2 °F - 71.6 °F 89% 29.86 in 10.0 mi ENE 9.2 mph 26.5 mph 0.00 in Thunderstorm Thunderstorm
12:53 AM 75.0 °F - 71.1 °F 87% 29.83 in 10.0 mi East 9.2 mph - 0.00 in Thunderstorm Overcast
1:28 AM 73.4 °F - 71.6 °F 94% 29.85 in 10.0 mi NE 6.9 mph - 0.00 in Rain , Thunderstorm Light Rain
1:38 AM 73.4 °F - 71.6 °F 94% 29.85 in 8.0 mi South 10.4 mph - 0.00 in Rain Light Rain
1:53 AM 75.0 °F - 72.0 °F 90% 29.82 in 10.0 mi SSE 6.9 mph - 0.01 in Thunderstorm Mostly Cloudy
2:05 AM 75.2 °F - 71.6 °F 89% 29.82 in 10.0 mi South 6.9 mph - N/A   Scattered Clouds
2:53 AM 73.9 °F - 71.1 °F 91% 29.81 in 10.0 mi SW 3.5 mph - N/A   Clear
3:53 AM 75.0 °F - 71.1 °F 87% 29.82 in 10.0 mi WSW 3.5 mph - N/A   Scattered Clouds
4:53 AM 73.0 °F - 71.1 °F 93% 29.81 in 10.0 mi SW 5.8 mph - N/A   Clear
5:53 AM 73.0 °F - 71.1 °F 93% 29.81 in 9.0 mi WSW 5.8 mph - N/A   Clear
6:53 AM 75.9 °F - 73.0 °F 91% 29.83 in 8.0 mi WSW 5.8 mph - N/A   Clear
7:53 AM 80.1 °F 84.5 °F 73.9 °F 81% 29.84 in 10.0 mi WNW 6.9 mph - N/A   Partly Cloudy
8:53 AM 84.0 °F 91.2 °F 73.9 °F 72% 29.85 in 10.0 mi WNW 6.9 mph - N/A   Clear
9:53 AM 86.0 °F 93.0 °F 73.0 °F 65% 29.85 in 10.0 mi NW 8.1 mph - N/A   Clear
10:53 AM 89.1 °F 97.0 °F 73.0 °F 59% 29.85 in 10.0 mi WNW 10.4 mph - N/A   Clear
11:53 AM 90.0 °F 96.4 °F 71.1 °F 54% 29.85 in 10.0 mi NNW 9.2 mph 19.6 mph N/A   Clear
12:53 PM 91.0 °F 95.6 °F 69.1 °F 48% 29.85 in 10.0 mi NW 11.5 mph - N/A   Clear
1:53 PM 91.9 °F 94.5 °F 66.0 °F 42% 29.85 in 10.0 mi NW 11.5 mph - N/A   Clear
2:53 PM 93.0 °F 97.4 °F 68.0 °F 44% 29.86 in 10.0 mi NW 10.4 mph - N/A   Clear
3:53 PM 93.0 °F 97.9 °F 69.1 °F 45% 29.84 in 10.0 mi NW 8.1 mph - N/A   Clear
4:53 PM 93.0 °F 99.0 °F 70.0 °F 47% 29.84 in 10.0 mi WNW 8.1 mph - N/A   Clear
5:53 PM 91.9 °F 96.9 °F 69.1 °F 47% 29.83 in 10.0 mi NW 5.8 mph - N/A   Clear
6:53 PM 91.0 °F 96.6 °F 70.0 °F 50% 29.81 in 10.0 mi WNW 3.5 mph - N/A   Clear
7:53 PM 84.9 °F 90.1 °F 71.1 °F 63% 29.81 in 10.0 mi WSW 4.6 mph - N/A   Clear
8:53 PM 82.9 °F 87.0 °F 70.0 °F 65% 29.78 in 10.0 mi South 5.8 mph - N/A   Clear
9:53 PM 82.0 °F 84.9 °F 68.0 °F 62% 29.78 in 10.0 mi SSW 3.5 mph - N/A   Clear
10:53 PM 78.1 °F - 71.1 °F 79% 29.80 in 10.0 mi WSW 3.5 mph - N/A   Clear
11:53 PM 75.9 °F - 70.0 °F 82% 29.82 in 10.0 mi West 3.5 mph - N/A   Clear